Tracking 18840 objects as of 19-November-2017
HD Live streaming from Space Station
objects crossing your sky now

EGG

Track EGG now!
10-day predictions
EGG is classified as:


NORAD ID: 41933
Int'l Code: 1998-067KV
Perigee: 370.9 km
Apogee: 377.3 km
Inclination: 51.6 °
Period: 91.9 minutes
Semi major axis: 6745 km
RCS: Unknown
Launch date: November 20, 1998
Source: Japan (JPN)
Launch site: TYURATAM MISSILE AND SPACE COMPLEX (TTMTR)
Uplink (MHz):
Downlink (MHz):
Beacon (MHz):
Mode:
Call sign:
Status:

aabbcc
Your satellite tracking list
Your tracking list is empty




NASA's NSSDC Master Catalog

Two Line Element Set (TLE):
1 41933U 98067KV  17323.19399970  .00028613  00000-0  26576-3 0  9992
2 41933  51.6368 332.0727 0004702 104.2450 255.9068 15.67183640 47786
Source of the keplerian elements: AFSPC